Location: Alafon
(8.4500°N, 4.2333°E)
Time: 12:03:28
(UTC+00:00)

Explorer 11/Cluster Stage 4 - Visible Passes

Search period start: 03 August 2021 00:00
Search period end: 13 August 2021 00:00
Orbit: 467 x 1257 km, 28.8° (Epoch: 02 August)

Date Brightness Start Highest point End Pass type
(mag) Time Alt. Az. Time Alt. Az. Time Alt. Az.
03 Aug 7.5 04:03:47 32° SSW 04:06:06 47° SSE 04:12:45 10° ENE visible
04 Aug 7.0 03:53:35 46° SSW 03:54:54 56° SSE 04:01:31 10° ENE visible
05 Aug 6.6 03:43:23 65° S 03:43:45 67° SSE 03:50:14 10° ENE visible
06 Aug 6.7 03:33:09 72° E 03:33:09 72° E 03:38:57 10° ENE visible
07 Aug 7.2 03:22:53 53° NE 03:22:53 53° NE 03:27:36 10° ENE visible
07 Aug 8.3 05:06:02 10° WNW 05:10:50 26° NNW 05:16:30 10° NE visible
08 Aug 7.8 03:12:37 36° NE 03:12:37 36° NE 03:16:15 10° NE visible
08 Aug 8.5 04:55:31 10° WNW 04:59:51 22° NNW 05:04:53 10° NNE visible
09 Aug 8.4 03:02:18 25° NE 03:02:18 25° NE 03:04:52 10° NE visible
09 Aug 8.6 04:45:06 10° WNW 04:48:54 19° NNW 04:53:15 10° NNE visible
10 Aug 8.9 02:51:59 17° NE 02:51:59 17° NE 02:53:28 10° NE visible
10 Aug 8.6 04:34:48 10° NW 04:37:59 16° NNW 04:41:33 10° NNE visible
11 Aug 9.2 02:41:38 12° NE 02:41:38 12° NE 02:42:03 10° NE visible
11 Aug 8.7 04:24:40 10° NW 04:27:06 13° N 04:29:46 10° NNE visible
12 Aug 8.8 04:14:54 10° NNW 04:16:14 11° N 04:17:39 10° N visible
